Observations for Trim Patrick St
| Time | AQI | Temp °C | Hum % | Pres Pa | CO μg/m³ | H₂S μg/m³ | NO μg/m³ | NO₂ μg/m³ | O₃ μg/m³ | SO₂ μg/m³ | PM1 μg/m³ | PM2.5 μg/m³ | PM10 μg/m³ |
|---|---|---|---|---|---|---|---|---|---|---|---|---|---|
| Monday 3 August 2026 | |||||||||||||
| 05:35 | 1 | 15.4 | 81 | 38,460 | 0.21 | 0 | 1.87 | 15.27 | 43.84 | 0 | 5.43 | 7.96 | 8.76 |
| 05:33 | 1 | 15.4 | 80 | 38,460 | 0.21 | 2.7 | 1.81 | 36.33 | 27.58 | 0 | 5.43 | 8.68 | 9.55 |
| 05:32 | 1 | 15.4 | 81 | 38,460 | 0.22 | 0 | 1.84 | 18 | 40.71 | 0 | 5.43 | 8.68 | 9.54 |
| 05:31 | 1 | 15.4 | 81 | 38,460 | 0.21 | 0.15 | 1.89 | 20.82 | 38.89 | 0 | 6.29 | 10.07 | 11.08 |
| 05:30 | 1 | 15.4 | 81 | 38,460 | 0.21 | 0.1 | 1.9 | 20.82 | 36.82 | 0 | 6.29 | 10.07 | 11.08 |
| 05:29 | 1 | 15.4 | 80 | 38,460 | 0.21 | 0 | 1.95 | 17.22 | 42.7 | 0 | 6.29 | 9.38 | 10.32 |
| 05:28 | 1 | 15.4 | 80 | 38,460 | 0.21 | 1.56 | 1.96 | 19.66 | 40.37 | 0 | 4.57 | 7.98 | 8.78 |
| 05:27 | 1 | 15.4 | 80 | 38,460 | 0.2 | 0 | 1.92 | 25.1 | 31.84 | 0 | 5.43 | 8.69 | 9.56 |
| 05:24 | 1 | 15.4 | 80 | 38,460 | 0.21 | 0.75 | 1.7 | 19.63 | 39.72 | 0 | 4.57 | 9.39 | 10.33 |
| 05:23 | 1 | 15.4 | 80 | 38,460 | 0.2 | 0 | 1.7 | 21.78 | 35.21 | 0 | 5.43 | 9.4 | 10.34 |
| 05:22 | 1 | 15.4 | 80 | 38,460 | 0.19 | 0.96 | 1.7 | 18.23 | 42.2 | 0 | 4.57 | 8 | 8.8 |
| 05:21 | 1 | 15.4 | 80 | 38,460 | 0.2 | 0.1 | 1.8 | 22.25 | 35.27 | 0 | 5.43 | 9.4 | 10.34 |
| 05:20 | 1 | 15.4 | 80 | 38,460 | 0.2 | 0 | 1.91 | 16.42 | 41.04 | 0 | 5.43 | 8.7 | 9.57 |
| 05:19 | 1 | 15.4 | 80 | 38,460 | 0.2 | 0 | 1.95 | 16.78 | 38.98 | 0 | 5.43 | 9.4 | 10.34 |
| 05:18 | 1 | 15.4 | 80 | 38,460 | 0.2 | 0 | 1.95 | 17.52 | 39.18 | 0 | 5.43 | 8.7 | 9.57 |
| 05:17 | 1 | 15.4 | 80 | 38,460 | 0.2 | 0.7 | 1.95 | 20.47 | 37.98 | 0 | 5.43 | 9.4 | 10.34 |
| 05:16 | 1 | 15.4 | 80 | 38,460 | 0.2 | 0 | 1.93 | 16.03 | 39.22 | 0 | 6.29 | 10.8 | 11.89 |
| 05:15 | 1 | 15.4 | 80 | 38,460 | 0.2 | 1.35 | 1.92 | 23.87 | 35.12 | 0 | 5.43 | 9.41 | 10.35 |
| 05:14 | 1 | 15.4 | 80 | 38,460 | 0.19 | 0 | 1.93 | 16.74 | 40.36 | 0 | 4.57 | 8.01 | 8.81 |
| 05:13 | 1 | 15.4 | 80 | 38,460 | 0.2 | 0 | 1.9 | 18.58 | 38.44 | 0 | 6.29 | 10.1 | 11.11 |